Regional Weather Roundup
Issued by NWS

Home | Current Version | Previous Version | Text Only | Print | Product List | Glossary On
Versions: 1 2 3 4 5 6 7 8 9 10 11 12 13 14 15 16 17 18 19 20 21 22 23 24 25 26 27 28 29 30 31 32 33 34 35 36 37 38 39 40 41 42 43 44 45 46 47 48 49 50
000
ASUS42 KKEY 230410
RWRKEY

FLORIDA REGIONAL WEATHER ROUNDUP FOR THE FLORIDA KEYS
NATIONAL WEATHER SERVICE KEY WEST FLORIDA
1200 AM EDT TUE SEP 23 2014

...SOUTH FLORIDA AND THE KEYS...

CITY           SKY/WX    TMP DP  RH WIND       PRES   REMARKS
FORT MYERS     MOCLDY    73  72  96 CALM      30.00S
SW REGIONAL AP MOCLDY    73  71  93 CALM      30.00F
NAPLES         MOCLDY    75  72  90 E6        29.99F
MIAMI          CLOUDY    78  75  90 N6        30.01S THUNDER
WEST KENDALL   CLEAR     78  74  87 N3        30.00S
HOMESTEAD      LGT RAIN  77  73  88 NE16      30.01R
MARATHON       MOCLDY    83  78  85 NE7       30.00R HX  93
BOCA CHICA NAS CLEAR     82  75  79 NE5       30.00R
KEY WEST INTL  CLEAR     82  75  79 N5        30.00R

...INTERNATIONAL WEATHER...

CITY           SKY/WX    TMP DP  RH WIND       PRES   REMARKS
NASSAU BAHAMAS PTCLDY    82  75  78 SE7       30.00F
CANCUN MEXICO  MOCLDY    75  75 100 CALM      29.98S THUNDER
COZUMEL MEXICO CLOUDY    73  70  88 CALM      29.98R THUNDER

ADJACENT COASTAL WATERS...

STATION/POSITION TIME  SKY/WX   TEMP    WIND        PRES    WAVE
                                AIR SEA DIR/SP/G            HT/PER
                 (UTC)          (F)     (DEG/KT/KT) (MB)    (FT/S)
PULASKI SHOAL LI 0400            80      20/  7/  8 1016.3R
SAND KEY         0341            83      50/  5/  7 1015.6R
SOMBRERO KEY     0400            83      40/  9/ 11 1016.3R
LONG KEY         0300            82 85   60/  7/  8 1016.0F
MOLASSES REEF    0300            83 85   10/  6/  7 1015.6R
FOWEY ROCKS      0400            78 85   90/ 10/ 11 1015.9R
Buoy 42080       NOT AVBL

$$


USA.gov is the U.S. government's official web portal to all federal, state and local government web resources and services.